Погода в Катасоне

Россия / Ставропольский край     44°48′01″N   44°17′20″E
темп.,
°C
ветер,
м/с
пор.,
м/с
влажн.,
%
обл.,
%
осадки,
мм/ч
давл.,
гПа
погр.,
м
6 мая, чт
чт600:00+10ююв336199 0.0 101839
03:00+9юв33660 0.0 101834
06:00+9вюв39690 0.0 1017234
09:00+16вюв710440 0.0 10171186
12:00+19вюв89360 0.0 10151530
15:00+20вюв78345 0.0 10141693
18:00+17юв59485 0.0 1014300
21:00+11вюв4126059 0.0 1016243
7 мая, пт
пт700:00+10вюв31063100 0.0 1016234
03:00+9вюв3870100 0.0 1016179
06:00+9юв267370 0.0 1017189
09:00+15юв455081 0.0 1017599
12:00+19юв213921 0.0 10171069
15:00+21с123641 0.0 10161425
18:00+20ююв224767 0.0 101635
21:00+15зюз225721 0.0 101811
8 мая, сб
сб800:00+14ссз226665 0.0 101810
03:00+13св117018 0.0 101710
06:00+14вюв22685 0.0 101739
09:00+20юв46535 0.0 1017686
12:00+23вюв67415 0.0 10151419
15:00+24вюв6735100 0.0 10141658
18:00+21вюв595198 0.0 1013260
21:00+15вюв5116476 0.0 1013237
9 мая, вс
вс900:00+12в497549 0.0 1012205
03:00+10в38805 0.0 1010182
06:00+11вюв3786100 0.0 1009240
09:00+16з3470100 0.0 1009605
12:00+18ссз101269100 0.1 1010955
15:00+18ссз7968100 0.1 10111228
18:00+9зсз111984100 2.0 1016863
21:00+7зсз111886100 2.7 1019851
10 мая, пн
пн1000:00+7зсз101587100 2.3 10201109
03:00+7зсз81479100 2.5 10211191
06:00+7з61382100 0.0 1021795
09:00+11з7106068 0.0 10201550
12:00+15з8114388 0.2 10182567
15:00+16зсз8113963 0.2 10182577
18:00+14зсз585124 0.0 1019581
21:00+10зсз2466100 0.0 1020111